SCP
0 0 0 0 0 0 0 0 0 0 0 0 0 0 0 0 0 0 0 0 0 0 0 0 0 0 0 0 0 0 0 0 0 0 0 0 0 0 0 0 0 0 0 0 0 0 0 0 0
0 0 0 0 0 0 0 0 0 0 0 0 0 0 0 0 0 0 0 0 0 0 0 0 0 0 0 0 0 0 0 0 0 0 0 0 0 0 0 0 0 0 0 0 0 0 0 0 0
0 0 0 0 0 0 0 0 0 0 0 0 0 0 0 0 0 0 0 0 0 0 0 0 0 0 0 0 0 0 0 0 0 0 0 0 0 0 0 0 0 0 0 0 0 0 0 0 0
0 0 0 0 0 0 0 0 0 0 0 0 0 0 0 0 0 0 0 0 0 0 0 0 0 0 0 0 0 0 0 0 0 0 0 0 0 0 0 0 0 0 0 0 0 0 0 0 0
0 0 0 0 0 0 0 0 0 0 0 0 0 0 0 0 0 0 0 0 0 0 0 0 0 0 0 0 0 0 0 0 0 0 0 0 0 0 0 0 0 0 0 0 0 0 0 0 0
0 0 0 0 0 0 0 0 0 0 0 0 0 0 0 0 0 0 0 0 0 0 0 0 0 0 0 0 0 0 0 0 0 0 0 0 0 0 0 0 0 0 0 0 0 0 0 0 0
0 0 0 0 0 0 0 0 0 0 0 0 0 0 0 0 0 0 0 0 0 0 0 0 0 0 0 0 0 0 0 0 0 0 0 0 0 0 0 0 0 0 0 0 0 0 0 0 0
0 0 0 0 0 0 0 0 0 0 0 0 0 0 0 0 0 0 0 0 0 0 0 0 0 0 0 0 0 0 0 0 0 0 0 0 0 0 0 0 0 0 0 0 0 0 0 0 0
0 0 0 0 0 0 0 0 0 0 0 0 0 0 0 0 0 0 0 0 0 0 0 0 0 0 0 0 0 0 0 0 0 0 0 0 0 0 0 0 0 0 0 0 0 0 0 0 0
0 0 0 0 0 0 0 0 0 0 0 0 0 0 0 0 0 0 0 0 0 0 0 0 0 0 0 0 0 0 0 0 0 0 0 0 0 0 0 0 0 0 0 0 0 0 0 0 0
0 0 0 0 0 0 0 0 0 0 0 0 0 0 0 0 0 0 0 0 0 0 0 0 0 0 0 0 0 0 0 0 0 0 0 0 0 0 0 0 0 0 0 0 0 0 0 0 0
0 0 0 0 0 0 0 0 0 0 0 0 0 0 0 0 0 0 0 0 0 0 0 0 0 0 0 0 0 0 0 0 0 0 0 0 0 0 0 0 0 0 0 0 0 0 0 0 0
0 0 0 0 0 0 0 0 0 0 0 0 0 0 0 0 0 0 0 0 0 0 0 0 0 0 0 0 0 0 0 0 0 0 0 0 0 0 0 0 0 0 0 0 0 0 0 0 0
0 0 0 0 0 0 0 0 0 0 0 0 0 0 0 0 0 0 0 0 0 0 0 0 0 0 0 0 0 0 0 0 0 0 0 0 0 0 0 0 0 0 0 0 0 0 0 0 0
0 0 0 0 0 0 0 0 0 0 0 0 0 0 0 0 0 0 0 0 0 0 0 0 0 0 0 0 0 0 0 0 0 0 0 0 0 0 0 0 0 0 0 0 0 0 0 0 0
0 0 0 0 0 0 0 0 0 0 0 0 0 0 0 0 0 0 0 0 0 0 0 0 0 0 0 0 0 0 0 0 0 0 0 0 0 0 0 0 0 0 0 0 0 0 0 0 0
0 0 0 0 0 0 0 0 0 0 0 0 0 0 0 0 0 0 0 0 0 0 0 0 0 0 0 0 0 0 0 0 0 0 0 0 0 0 0 0 0 0 0 0 0 0 0 0 0
0 0 0 0 0 0 0 0 0 0 0 0 0 0 0 0 0 0 0 0 0 0 0 0 0 0 0 0 0 0 0 0 0 0 0 0 0 0 0 0 0 0 0 0 0 0 0 0 0
0 0 0 0 0 0 0 0 0 0 0 0 0 0 0 0 0 0 0 0 0 0 0 0 0 0 0 0 0 0 0 0 0 0 0 0 0 0 0 0 0 0 0 0 0 0 0 0 0
0 0 0 0 0 0 0 0 0 0 0 0 0 0 0 0 0 0 0 0 0 0 0 0 0 0 0 0 0 0 0 0 0 0 0 0 0 0 0 0 0 0 0 0 0 0 0 0 0
0 0 0 0 0 0 0 0 0 0 0 0 0 0 0 0 0 0 0 0 0 0 0 0 0 0 0 0 0 0 0 0 0 0 0 0 0 0 0 0 0 0 0 0 0 0 0 0 0
0 0 0 0 0 0 0 0 0 0 0 0 0 0 0 0 0 0 0 0 0 0 0 0 0 0 0 0 0 0 0 0 0 0 0 0 0 0 0 0 0 0 0 0 0 0 0 0 0
0 0 0 0 0 0 0 0 0 0 0 0 0 0 0 0 0 0 0 0 0 0 0 0 0 0 0 0 0 0 0 0 0 0 0 0 0 0 0 0 0 0 0 0 0 0 0 0 0
0 0 0 0 0 0 0 0 0 0 0 0 0 0 0 0 0 0 0 0 0 0 0 0 0 0 0 0 0 0 0 0 0 0 0 0 0 0 0 0 0 0 0 0 0 0 0 0 0
0 0 0 0 0 0 0 0 0 0 0 0 0 0 0 0 0 0 0 0 0 0 0 0 0 0 0 0 0 0 0 0 0 0 0 0 0 0 0 0 0 0 0 0 0 0 0 0 0
0 0 0 0 0 0 0 0 0 0 0 0 0 0 0 0 0 0 0 0 0 0 0 0 0 0 0 0 0 0 0 0 0 0 0 0 0 0 0 0 0 0 0 0 0 0 0 0 0
0 0 0 0 0 0 0 0 0 0 0 0 0 0 0 0 0 0 0 0 0 0 0 0 0 0 0 0 0 0 0 0 0 0 0 0 0 0 0 0 0 0 0 0 0 0 0 0 0
0 0 0 0 0 0 0 0 0 0 0 0 0 0 0 0 0 0 0 0 0 0 0 0 0 0 0 0 0 0 0 0 0 0 0 0 0 0 0 0 0 0 0 0 0 0 0 0 0
0 0 0 0 0 0 0 0 0 0 0 0 0 0 0 0 0 0 0 0 0 0 0 0 0 0 0 0 0 0 0 0 0 0 0 0 0 0 0 0 0 0 0 0 0 0 0 0 0
0 0 0 0 0 0 0 0 0 0 0 0 0 0 0 0 0 0 0 0 0 0 0 0 0 0 0 0 0 0 0 0 0 0 0 0 0 0 0 0 0 0 0 0 0 0 0 0 0
Wind_Speed
10 11 8 2 2 0 5 7 8 6 8 9 8 9 11 12 8 7 3 2 6 9 11 9 9 8 8 8 8 8 9 9 9 8 8 8 8 8 8 7 7 8 8 8 8 9 9 9 9
10 7 4 3 1 2 6 6 8 8 7 6 7 9 11 11 10 8 4 3 6 9 10 9 8 8 8 9 9 8 8 8 8 8 8 8 8 8 7 7 7 8 8 8 9 9 9 8 8
12 8 4 2 3 5 6 7 7 7 5 5 7 10 9 7 9 6 4 4 7 9 10 9 9 8 8 8 8 8 8 8 8 7 7 7 7 7 7 7 7 8 8 8 9 9 8 7 7
6 3 3 1 6 7 6 6 6 6 5 6 7 9 9 9 7 6 5 6 7 8 10 9 9 8 7 7 7 7 7 7 7 7 7 7 6 6 6 7 7 8 8 8 8 8 8 7 7
4 2 1 3 6 7 6 7 6 6 6 8 9 10 10 9 8 7 5 6 7 7 9 10 9 8 7 7 6 6 6 6 6 7 7 6 6 6 7 7 7 7 8 8 8 8 8 7 7
3 2 0 3 6 6 5 5 6 6 6 6 8 9 8 7 7 5 6 6 6 6 8 9 9 8 7 7 6 5 5 5 5 6 5 5 5 6 7 7 7 7 8 8 8 8 8 7 6
3 1 1 4 5 5 6 6 6 5 6 6 6 7 7 8 5 5 6 5 5 5 6 7 7 8 8 7 6 5 5 4 4 4 4 4 4 5 6 6 7 7 7 7 7 7 7 7 6
3 2 1 4 4 5 6 5 5 6 6 6 5 5 6 8 5 5 5 5 5 4 5 5 5 5 6 6 6 6 5 4 3 3 3 3 4 4 6 7 7 7 7 7 6 5 5 5 4
3 1 2 3 3 4 5 5 6 4 5 6 7 8 9 9 6 5 4 5 4 5 3 3 4 4 4 4 6 6 5 4 4 4 4 3 2 3 4 7 7 7 6 5 4 3 3 3 2
1 1 2 3 3 5 4 3 4 4 4 5 6 9 9 7 5 5 5 5 5 4 3 3 3 4 3 3 4 2 3 3 3 2 3 1 2 3 5 7 7 6 5 4 3 1 1 1 0
1 1 2 4 5 4 4 3 3 3 3 4 5 8 7 6 5 5 5 5 5 5 4 3 3 3 3 3 2 1 1 1 1 2 2 2 2 3 3 2 3 2 3 1 2 1 1 1 1
0 1 2 3 4 2 2 3 3 3 3 4 5 6 7 5 4 4 5 6 5 5 4 3 3 3 4 4 2 2 1 1 1 1 2 2 1 2 2 2 2 1 1 1 1 1 2 3 3
1 1 1 1 2 1 1 2 2 2 3 4 5 6 5 4 4 4 5 6 6 5 4 4 3 4 3 3 1 3 2 2 2 1 2 3 2 2 2 2 2 2 1 1 2 2 3 4 5
0 0 1 2 2 2 2 1 1 3 4 3 4 4 5 4 4 4 4 4 6 5 5 4 3 4 4 3 2 3 2 2 2 2 2 2 2 2 2 3 2 2 2 2 2 3 3 3 4
2 4 4 4 4 4 2 2 2 4 5 3 4 4 4 5 4 4 4 4 5 5 5 5 3 4 4 4 3 3 3 3 2 2 2 3 3 3 3 2 2 2 2 3 3 3 3 3 4
7 7 6 5 5 4 4 3 2 5 5 3 3 4 4 4 4 4 4 4 5 4 6 5 4 4 4 4 3 3 3 3 2 2 2 3 3 4 3 2 2 2 2 3 3 2 3 3 3
8 8 7 4 5 5 6 3 3 3 5 4 4 4 6 5 4 4 4 4 4 4 5 5 4 4 4 4 3 3 3 3 2 2 2 3 3 4 3 2 2 2 2 2 2 2 2 2 2
6 6 4 3 4 4 4 4 4 4 5 5 3 3 4 5 5 4 5 5 3 3 4 5 5 4 4 3 3 3 3 3 3 3 2 3 3 4 3 2 2 3 3 3 3 3 2 2 2
7 7 7 3 3 4 4 4 3 3 3 3 3 3 3 4 5 5 5 5 3 3 3 5 5 3 3 2 2 2 2 2 2 2 3 3 3 3 3 2 3 2 2 2 3 2 2 1 1
8 8 8 4 2 4 4 4 4 4 4 3 3 4 4 4 5 5 5 5 4 3 2 4 4 3 4 2 2 2 2 1 2 2 2 1 2 2 3 3 2 2 2 2 2 2 1 0 0
9 8 7 6 5 6 6 6 4 4 4 2 2 2 3 4 5 6 5 4 3 3 2 3 4 3 3 3 2 2 2 2 2 1 1 1 2 2 2 3 2 2 2 2 1 1 1 1 1
8 6 6 6 7 5 5 5 5 6 5 4 3 2 2 3 4 6 5 4 3 3 2 2 3 3 3 3 2 2 2 1 1 1 1 1 2 2 1 2 2 1 1 2 1 1 1 1 0
6 6 7 8 9 10 9 7 3 5 5 4 3 3 3 3 4 5 5 4 4 3 2 2 3 3 3 3 3 2 2 1 1 1 2 2 2 2 2 2 1 1 1 1 1 1 0 0 0
6 7 9 9 7 9 10 7 1 3 3 4 4 4 4 4 5 5 5 4 4 3 3 2 2 2 2 2 2 2 2 2 2 1 1 2 1 1 1 1 1 1 1 1 1 1 1 0 0
6 5 4 4 5 5 4 3 2 4 5 5 4 4 4 4 5 5 5 4 4 3 2 2 2 2 2 1 2 2 2 2 2 2 2 1 1 1 1 1 1 1 1 1 1 1 1 1 1
6 7 5 4 5 3 2 1 4 6 7 6 6 5 5 5 4 4 5 4 4 3 2 2 2 1 2 2 1 1 1 1 1 2 2 2 2 2 2 2 1 0 0 1 1 1 1 1 1
6 6 6 8 10 8 3 3 4 6 7 7 6 5 4 5 4 4 4 3 4 3 2 2 2 1 1 1 1 0 0 1 1 2 2 2 2 2 3 3 2 2 1 1 2 1 1 1 1
7 7 5 5 5 6 4 1 3 4 5 6 5 4 4 4 3 4 3 3 3 2 2 2 1 1 1 1 1 0 1 0 1 1 1 2 2 2 2 2 2 3 3 2 2 1 1 0 1
5 7 6 5 6 5 4 1 4 6 5 5 4 4 3 4 2 2 3 2 3 2 2 2 1 1 1 1 0 0 0 0 0 1 1 1 1 2 2 2 2 2 2 2 2 2 2 2 2
5 6 6 5 6 6 5 0 4 6 5 5 4 4 3 3 2 2 3 2 2 2 2 2 1 2 1 1 1 0 0 0 0 0 0 1 1 1 1 1 1 1 1 2 2 3 2 3 3
Wind_Direction
263 251 247 248 262 228 59 59 65 53 55 49 46 57 61 53 47 79 117 76 88 100 105 92 78 75 74 71 70 71 71 70 68 66 64 65 68 68 68 67 67 68 68 66 66 65 64 62 60
279 275 274 244 250 68 71 66 66 59 59 61 60 60 68 63 70 91 101 72 92 95 94 91 86 77 75 74 70 67 72 71 69 68 68 66 69 71 70 70 70 69 69 69 67 65 64 62 58
270 273 270 269 37 61 73 74 75 73 62 63 69 61 57 62 70 90 111 107 90 92 97 98 94 84 79 75 72 70 71 73 71 71 72 70 68 71 72 72 71 71 70 69 69 67 66 63 59
271 271 252 30 62 67 78 89 90 79 66 63 71 77 67 60 76 100 114 107 94 98 103 110 105 97 89 81 75 73 73 73 75 77 76 75 71 69 71 70 71 73 72 72 71 68 65 61 58
251 259 260 80 73 71 64 70 80 78 66 66 75 88 84 77 87 101 98 90 92 97 108 118 119 116 110 97 84 78 78 76 77 78 77 75 73 72 74 72 72 76 76 74 72 68 65 63 57
278 267 343 83 86 81 74 70 71 79 78 76 84 93 95 96 91 94 91 85 92 100 111 122 132 133 128 112 100 94 91 86 82 81 80 80 83 84 81 77 77 82 80 78 74 69 68 68 58
283 299 94 98 97 89 75 60 65 72 69 64 76 94 107 105 103 109 103 97 93 98 113 131 143 147 144 131 124 120 113 108 102 97 94 95 94 96 95 88 84 86 86 84 80 75 74 71 60
286 305 47 80 87 85 82 74 60 63 65 58 61 85 111 118 126 115 107 105 100 98 99 114 129 139 147 148 147 147 139 139 141 137 137 128 123 121 106 98 92 91 92 92 88 83 84 80 69
280 323 36 73 86 97 105 101 91 77 86 83 75 83 100 118 130 121 110 101 90 81 85 105 115 117 124 140 142 156 159 170 175 177 178 164 144 133 117 104 105 102 101 102 100 94 95 93 81
241 41 42 67 86 103 105 107 119 117 96 98 102 101 109 126 134 128 116 106 105 99 85 85 98 102 101 101 122 146 148 163 182 154 156 160 101 99 104 115 117 120 119 125 128 144 168 236 193
139 125 74 72 67 81 99 88 75 104 82 100 115 120 127 133 137 131 117 105 97 97 84 69 85 100 104 95 104 98 93 129 127 107 121 115 102 112 114 127 130 141 147 168 154 203 227 145 83
222 79 54 86 89 103 112 90 66 71 82 86 102 116 127 138 134 124 113 106 101 93 90 71 75 82 86 93 97 101 86 80 87 110 108 99 94 96 108 113 124 119 102 59 74 60 49 46 66
227 111 148 124 126 131 99 101 100 97 100 107 112 119 126 135 129 110 104 113 110 106 97 76 63 78 85 96 108 103 97 77 91 75 89 103 104 102 102 99 88 81 74 53 47 45 52 41 41
222 236 223 211 178 194 179 158 172 146 126 134 133 136 145 138 125 114 114 116 114 114 103 87 72 69 72 72 76 93 94 86 73 67 63 96 105 97 89 84 74 67 75 67 62 55 57 57 53
229 234 234 219 210 202 175 233 201 148 136 148 149 147 135 131 129 122 119 110 113 117 109 99 88 76 75 73 61 76 75 72 66 67 49 62 70 89 90 87 82 67 70 69 54 50 43 63 71
237 237 235 212 202 196 212 238 162 148 144 158 171 151 135 123 125 121 110 102 104 106 106 101 87 83 75 71 69 64 74 77 64 60 37 53 71 81 84 80 79 75 76 79 70 55 50 54 62
237 239 239 205 201 210 213 213 187 175 164 179 193 165 147 139 131 118 106 101 97 105 108 109 94 88 84 77 79 63 65 67 66 59 42 41 57 78 90 84 85 74 74 73 77 67 64 68 71
262 267 267 246 216 229 230 212 186 189 187 184 185 162 142 141 141 125 108 99 92 93 105 107 96 87 94 88 87 79 68 62 61 62 48 47 49 63 81 84 82 80 77 71 69 71 58 64 64
307 300 292 278 262 258 244 231 205 197 198 190 182 157 147 140 138 129 115 107 101 86 98 106 108 106 99 87 85 89 79 74 72 77 59 49 56 57 69 71 69 77 89 101 97 89 80 65 81
287 286 285 282 282 282 269 242 218 195 200 199 182 169 162 151 140 125 126 124 119 117 121 117 112 107 101 94 98 114 118 110 104 90 90 75 68 67 82 78 75 77 79 76 75 84 91 52 80
269 276 286 300 295 275 269 254 209 171 177 176 180 167 154 148 146 139 135 123 120 128 132 125 115 110 111 114 102 93 94 84 84 93 92 97 85 69 69 94 98 96 90 90 100 111 119 148 300
278 294 302 299 289 274 250 265 209 182 175 173 167 153 130 130 131 128 130 126 128 133 137 127 124 121 115 120 115 116 118 121 129 131 134 131 120 107 88 92 103 112 120 126 163 150 172 141 221
302 317 295 279 276 278 256 256 197 165 171 165 151 143 133 130 126 123 123 126 122 112 110 106 99 103 105 112 122 130 120 134 125 122 131 124 118 119 114 106 118 140 130 156 163 113 94 118 191
287 278 268 255 257 262 250 248 159 160 169 151 145 140 135 125 115 116 109 111 107 98 92 91 98 102 105 117 140 138 138 155 141 142 132 119 113 130 141 148 161 183 168 172 154 133 113 59 280
257 266 271 241 219 239 233 224 105 96 99 116 125 127 125 122 120 117 113 117 119 112 109 109 110 120 139 164 162 169 179 172 166 160 146 144 152 165 181 168 179 202 166 161 142 128 168 188 210
262 257 271 294 295 306 286 205 110 98 88 84 92 100 109 109 109 111 121 124 125 125 127 135 130 140 161 175 187 181 164 170 174 173 157 168 185 187 183 165 175 175 191 180 135 170 200 191 203
268 263 280 289 290 288 248 127 116 101 103 90 84 79 92 102 103 104 105 116 124 128 137 148 147 159 158 167 163 182 180 177 197 189 159 166 186 188 167 169 173 174 214 200 150 180 210 170 193
267 290 284 272 286 282 277 211 145 138 115 104 90 79 67 67 98 110 111 110 109 123 135 132 144 156 145 162 191 199 198 166 178 151 163 188 194 181 160 188 188 182 199 185 152 176 185 202 225
247 259 269 274 268 280 294 29 80 103 101 105 94 80 75 70 39 98 115 121 122 114 117 111 103 86 86 107 22 40 29 190 188 162 209 213 213 189 182 208 210 192 199 179 164 193 195 217 235
265 264 271 278 287 293 289 296 79 100 104 104 99 93 95 95 72 65 93 103 108 110 108 116 107 91 85 105 103 177 244 284 256 151 250 263 251 212 189 195 219 197 200 191 192 205 207 219 229